Regional Weather Roundup
Issued by NWS

Home | Current Version | Previous Version | Text Only | Print | Product List | Glossary On
Versions: 1 2 3 4 5 6 7 8 9 10 11 12 13 14 15 16 17 18 19 20 21 22 23 24 25 26 27 28 29 30 31 32 33 34 35 36 37 38 39 40 41 42 43 44 45 46 47 48 49 50
000
ASUS43 KMKX 041221
RWRWI

WISCONSIN REGIONAL WEATHER ROUNDUP
NATIONAL WEATHER SERVICE MILWAUKEE/SULLIVAN WI
700 AM CDT SAT JUL 04 2015

NOTE: "FAIR" INDICATES FEW OR NO CLOUDS BELOW 12,000 FEET WITH NO
SIGNIFICANT WEATHER AND/OR OBSTRUCTIONS TO VISIBILITY.

WIZ001-002-006>008-014>016-023>028-041300-
NORTHWEST WISCONSIN

CITY           SKY/WX    TMP DP  RH WIND       PRES   REMARKS
SUPERIOR ARPT  SUNNY     61  58  91 NE6       29.97R
6HR MIN TEMP:  52; 6HR MAX TEMP:  61;

ASHLAND        CLOUDY    57  57 100 CALM      29.97R FOG
6HR MIN TEMP:  50; 6HR MAX TEMP:  58;

HAYWARD        SUNNY     54  52  93 CALM      29.97R FOG
6HR MIN TEMP:  51; 6HR MAX TEMP:  58;

SIREN          CLOUDY    57  56  98 CALM      29.96R FOG
6HR MIN TEMP:  53; 6HR MAX TEMP:  62;

CUMBERLAND     FOG       57  55  94 CALM      29.96S VSB 1/2
RICE LAKE      FOG       58  57  96 CALM      29.98S VSB<1/4
6HR MIN TEMP:  57; 6HR MAX TEMP:  64; 6HR PCP:  0.01;

CHETEK         SUNNY     60  59  98 CALM      29.96S FOG
6HR MIN TEMP:  57; 6HR MAX TEMP:  64;

LADYSMITH      SUNNY     57  56  96 CALM      29.99R
6HR MIN TEMP:  54; 6HR MAX TEMP:  60;

EAU CLAIRE     SUNNY     62  59  90 CALM      29.95R
6HR MIN TEMP:  58; 6HR MAX TEMP:  65;

MENOMONIE      SUNNY     61  59  94 CALM      29.96S
6HR MIN TEMP:  58; 6HR MAX TEMP:  65;

NEW RICHMOND   SUNNY     60  59  98 CALM      29.96S FOG
6HR MIN TEMP:  57; 6HR MAX TEMP:  63;

OSCEOLA        SUNNY     60  60 100 CALM      29.98S FOG
6HR MIN TEMP:  56; 6HR MAX TEMP:  62;

$$

WIZ003>005-009-010-017-018-041300-
NORTH CENTRAL WISCONSIN

CITY           SKY/WX    TMP DP  RH WIND       PRES   REMARKS
MANITOWISH WTR SUNNY     56  56 100 CALM      29.98R
6HR MIN TEMP:  50; 6HR MAX TEMP:  56;

ARBOR VITAE    FOG       57  56  95 CALM      29.98R VSB 1/4
6HR MIN TEMP:  52; 6HR MAX TEMP:  59;

WOODRUFF       FOG       57  56  95 CALM      29.98R VSB 1/4
6HR MIN TEMP:  52; 6HR MAX TEMP:  59;

RHINELANDER    FOG       59  58  96 CALM      29.99R VSB 1
6HR MIN TEMP:  50; 6HR MAX TEMP:  58;

EAGLE RIVER    FOG       53  53 100 CALM      29.99R VSB 1/4
6HR MIN TEMP:  49; 6HR MAX TEMP:  56;

LAND O LAKES   FOG       53  53 100 CALM      30.00R VSB 1/2
6HR MIN TEMP:  49; 6HR MAX TEMP:  54;

PHILLIPS       SUNNY     55  55 100 CALM      29.98R
6HR MIN TEMP:  51; 6HR MAX TEMP:  59;

TOMAHAWK       SUNNY     54  53  97 CALM      29.98R FOG
6HR MIN TEMP:  50; 6HR MAX TEMP:  60;

MEDFORD        SUNNY     56  56 100 CALM      29.98R FOG
6HR MIN TEMP:  52; 6HR MAX TEMP:  57;

MERRILL        SUNNY     55  55 100 CALM      29.98S FOG
6HR MIN TEMP:  51; 6HR MAX TEMP:  61;

$$

WIZ029-030-035-036-043>047-041300-
CENTRAL WISCONSIN

CITY           SKY/WX    TMP DP  RH WIND       PRES   REMARKS
WAUSAU         SUNNY     60  57  89 E3        29.96R
6HR MIN TEMP:  57; 6HR MAX TEMP:  64;

MOSINEE        MOSUNNY   57  57 100 CALM      29.99R
MARSHFIELD     SUNNY     62  57  83 CALM      29.97R
6HR MIN TEMP:  58; 6HR MAX TEMP:  62;

STEVENS POINT  CLOUDY    57  55  95 CALM      29.98R
6HR MIN TEMP:  53; 6HR MAX TEMP:  59;

WAUPACA        MOSUNNY   61  61  98 CALM      29.97R
6HR MIN TEMP:  57; 6HR MAX TEMP:  63;

WAUTOMA        MOSUNNY   60  60 100 CALM      29.97S
6HR MIN TEMP:  56; 6HR MAX TEMP:  60;

WISC RAPIDS    SUNNY     62  58  86 CALM      29.98R
6HR MIN TEMP:  57; 6HR MAX TEMP:  62;

CAMP DOUGLAS   MOSUNNY   58  58 100 SE2       29.96R
6HR MIN TEMP:  53; 6HR MAX TEMP:  58;

$$

WIZ011>013-019>022-031-037>040-048>050-041300-
NORTHEAST WISCONSIN

CITY           SKY/WX    TMP DP  RH WIND       PRES   REMARKS
ANTIGO         SUNNY     56  56 100 CALM      29.99R FOG
SHAWANO        SUNNY     63  59  86 CALM      29.96S
6HR MIN TEMP:  60; 6HR MAX TEMP:  64;

OCONTO         MOSUNNY   60  60 100 CALM      29.95R
6HR MIN TEMP:  55; 6HR MAX TEMP:  60;

STURGEON BAY   SUNNY     64  59  82 N5        29.98R
6HR MIN TEMP:  61; 6HR MAX TEMP:  63;

GREEN BAY      SUNNY     63  59  87 CALM      29.95R
6HR MIN TEMP:  59; 6HR MAX TEMP:  63;

MANITOWOC      SUNNY     66  61  84 MISG      29.95R
6HR MIN TEMP:  61; 6HR MAX TEMP:  66;

APPLETON       MOSUNNY   63  61  94 W9        29.97R
CLINTONVILLE   SUNNY     61  57  88 CALM      29.96R
OSHKOSH        PTSUNNY   65  59  81 W5        29.96R
6HR MIN TEMP:  63; 6HR MAX TEMP:  65;

$$

WIZ032>034-041-042-053>061-041300-
SOUTHWEST WISCONSIN

CITY           SKY/WX    TMP DP  RH WIND       PRES   REMARKS
LA CROSSE      SUNNY     63  61  93 S7        29.96S
6HR MIN TEMP:  62; 6HR MAX TEMP:  65;

SPARTA         PTSUNNY   58  56  93 CALM      29.98S
6HR MIN TEMP:  53; 6HR MAX TEMP:  58;

VIROQUA        SUNNY     61  61 100 SW3       29.98F
6HR MIN TEMP:  59; 6HR MAX TEMP:  63;

BOSCOBEL       FOG       58  57  97 CALM      29.99R VSB<1/4
6HR MIN TEMP:  54; 6HR MAX TEMP:  58;

PRAIRIE DU CHI SUNNY     57  55  94 CALM      29.99R
6HR MIN TEMP:  56; 6HR MAX TEMP:  59;

PLATTEVILLE    SUNNY     58  56  94 CALM      30.00R
6HR MIN TEMP:  56; 6HR MAX TEMP:  62;

$$

WIZ056-057-062-063-064-067-068-041300-
SOUTH CENTRAL WISCONSIN

CITY           SKY/WX    TMP DP  RH WIND       PRES   REMARKS
REEDSBURG      SUNNY     57  56  96 CALM      29.98R
6HR MIN TEMP:  54; 6HR MAX TEMP:  59;

BARABOO/DELLS  SUNNY     60  57  89 CALM      29.98R
6HR MIN TEMP:  55; 6HR MAX TEMP:  60;

LONE ROCK      FOG       56  55  97 CALM      29.99S VSB 1
6HR MIN TEMP:  53; 6HR MAX TEMP:  57;

MINERAL POINT  SUNNY     61  55  82 W3        29.99S
MADISON        SUNNY     60  55  83 CALM      29.97S
6HR MIN TEMP:  56; 6HR MAX TEMP:  60;

MIDDLETON      SUNNY     61  59  93 CALM      29.99S
6HR MIN TEMP:  55; 6HR MAX TEMP:  61;

WATERTOWN      SUNNY     57  57 100 CALM      29.98S
6HR MIN TEMP:  53; 6HR MAX TEMP:  57;

MONROE         SUNNY     64  54  68 W9        29.99R
JANESVILLE     SUNNY     57  55  94 CALM      29.98R
$$

WIZ051-052-058>065-066-070>072-041300-
SOUTHEAST WISCONSIN

CITY           SKY/WX    TMP DP  RH WIND       PRES   REMARKS
MILWAUKEE      MOSUNNY   65  55  70 W7        29.97S
6HR MIN TEMP:  60; 6HR MAX TEMP:  65;

WAUKESHA       SUNNY     57  54  88 CALM      29.99R
MILWAUKEE/TIMM SUNNY     63  54  72 CALM      29.98S
RACINE         SUNNY     62  54  74 W7        29.99R
6HR MIN TEMP:  58; 6HR MAX TEMP:  62;

BURLINGTON     SUNNY     54  54  99 CALM      29.98S FOG
6HR MIN TEMP:  49; 6HR MAX TEMP:  54;

KENOSHA        SUNNY     60  56  86 W5        29.98S FOG
6HR MIN TEMP:  54; 6HR MAX TEMP:  60;

FOND DU LAC    PTSUNNY   62  58  86 SW3       29.97R
6HR MIN TEMP:  60; 6HR MAX TEMP:  63;

SHEBOYGAN      MOSUNNY   63  59  87 W5        29.96R
6HR MIN TEMP:  58; 6HR MAX TEMP:  63;

WEST BEND      PTSUNNY   61  55  82 CALM      29.97S
JUNEAU         SUNNY     58  55  92 CALM      29.99R
6HR MIN TEMP:  54; 6HR MAX TEMP:  60;

$$

LSZ147-162-041300-
LAKE SUPERIOR

STATION/POSITION TIME  TEMP    WIND        PRES    WAVE
                       AIR SEA DIR/SP/G            HT/PER
                 (UTC) (F)     (DEG/KT/KT) (MB)    (FT/S)
W MID LAKE BUOY  1150   42 38   40/  4/  6 1015.4R   0
DEVILS ISLAND    1200   58      40/  7/  8 1015.1R
SAXON HARBOR     1100   57     170/  3/  5 1013.9R
$$

LMZ867-665-643>646-041300-
LAKE MICHIGAN

STATION/POSITION TIME  TEMP    WIND        PRES    WAVE
                       AIR SEA DIR/SP/G            HT/PER



USA.gov is the U.S. government's official web portal to all federal, state and local government web resources and services.